Location: East Arcadia
(34.1056°N, 118.0176°W)
Time: 02:17:38
(UTC+00:00)

COSMO-SKYMED 1 - Pass Details

Date: 01 April 2023
Orbit: 621 x 623 km, 97.9° (Epoch: 08 June)

Event Time Altitude Azimuth Distance (km) Brightness Sun altitude
Rises 12:53:49 0° 157° (SSE) 2,885 6.1 -10.2°
Reaches altitude 10° 12:56:01 10° 153° (SSE) 1,983 5.3 -9.7°
Maximum altitude 13:00:15 56° 75° (ENE) 738 3.4 -8.9°
Drops below altitude 10° 13:04:30 10° 357° (N) 1,997 5.3 -8.0°
Sets 13:06:43 0° 354° (N) 2,908 6.1 -7.6°
